Regional Weather Roundup
Issued by NWS Spokane, WA

Home | Current Version | Previous Version | Text Only | Print | Product List | Glossary On
Versions: 1 2 3 4 5 6 7 8 9 10 11 12 13 14 15 16 17 18 19 20 21 22 23 24 25 26 27 28 29 30 31 32 33 34 35 36 37 38 39 40 41 42 43 44 45 46 47 48 49 50
704
NZUS01 KOTX 220625
RWROTX

Eastern Washington/Northern Idaho Roundup
National Weather Service, Spokane WA
1000 PM PST TUE FEB 21 2017

Note: "fair" indicated few or no clouds below 12,000 feet with no
significant weather and/or obstructions to visibility.

...Northeast Washington and Northern Idaho Panhandle...

CITY           SKY/WX    TMP DP  RH WIND       PRES   REMARKS
Spokane Intl   FRZ DRZL  32  32 100 SW8       29.95R FOG     WCI  25
Spokane Downto CLOUDY    35  33  92 S5        29.97R
Coeur d Alene  CLOUDY    34  32  93 SW6       29.96R FOG     WCI  29
Deer Park      CLOUDY    33  31  92 S7        29.95R WCI  27
Sandpoint      CLOUDY    34  34 100 S6        29.93R WCI  29
Bonners Ferry  CLOUDY    34  32  93 CALM      29.89R

...Southeast Washington and southern Idaho Panhandle...

CITY           SKY/WX    TMP DP  RH WIND       PRES   REMARKS
Walla Walla    CLOUDY    41  36  82 S10       30.04R
Pullman/Moscow CLOUDY    34  33  96 W9        29.98R WCI  27
Lewiston       CLOUDY    37  34  89 E3        30.00R
Grangeville    CLOUDY    36  32  87 SW13G24   29.95R

...Columbia Basin...

CITY           SKY/WX    TMP DP  RH WIND       PRES   REMARKS
Ephrata        FOG       33  30  88 N5        29.99R VSB 3/4 WCI  29
Moses Lake     FOG       32  30  92 NE5       30.00R VSB 1/4 WCI  27
Pasco          CLOUDY    37  35  92 N6        30.05R
Richland       CLOUDY    41  38  90 SW6       30.06R
Hermiston      CLOUDY    42  36  79 SW7       30.05R
Pendleton      CLOUDY    40  37  89 W8        30.04R

...East Slopes Cascades...

CITY           SKY/WX    TMP DP  RH WIND       PRES   REMARKS
The Dalles     CLOUDY    43  36  76 W10       30.11R
Yakima         CLOUDY    33  31  92 CALM      30.04R FOG
Ellensburg     CLOUDY    35  26  69 NW8       30.01R WCI  29
Stampede Pass  SNOW      27  52 100 W10G20    29.96S VSB 1/2 WCI  17
Wenatchee      CLOUDY    37  27  67 N6        30.00R
Omak           PTCLDY    31  28  89 CALM      29.98R
Chelan           N/A     34  25  70 MISG        N/A
Sunnyside      FOG       33  33  99 CALM      30.06R VSB 1/4

...Southern British Columbia...

CITY           SKY/WX    TMP DP  RH WIND       PRES   REMARKS
Penticton      MOCLDY    34  28  80 VRB2      29.99R
Cranbrook      FOG       30  30 100 E5        29.81R VSB 1/4 WCI  25
Osoyoos          N/A     34  30  86 NW1         N/A
Creston          N/A     36  34  93 W1          N/A

...Western Montana...

CITY           SKY/WX    TMP DP  RH WIND       PRES   REMARKS
Kalispell      CLOUDY    33  32  96 S3        29.83R
Libby            N/A     32  32 100 CALM      29.86R VSB 1/4
Missoula       CLOUDY    35  33  92 N8        29.87R WCI  29

...Neighboring Cities...

CITY           SKY/WX    TMP DP  RH WIND       PRES   REMARKS
Seattle        CLOUDY    41  36  82 E12       30.12R
Portland       MOCLDY    41  39  93 CALM      30.19R
Boise          MOCLDY    40  28  62 CALM      30.04R
Great Falls    LGT SNOW  32  31  96 N12       29.74R VSB 1   WCI  23
Calgary        MOCLDY    27  25  93 CALM      29.73R FOG



USA.gov is the U.S. government's official web portal to all federal, state and local government web resources and services.